TimeCST,TemperatureF,Dew PointF,Humidity,Sea Level PressureIn,VisibilityMPH,Wind Direction,Wind SpeedMPH,Gust SpeedMPH,PrecipitationIn,Events,Conditions,WindDirDegrees,DateUTC
12:14 AM,33.8,30.2,87,29.77,3.0,South,12.7,-,0.01,Snow,Light Snow,180,2012-11-06 06:14:00
12:27 AM,33.8,30.2,87,29.75,2.0,South,11.5,-,0.01,Snow,Light Snow,170,2012-11-06 06:27:00
12:37 AM,33.8,30.2,87,29.74,1.8,South,12.7,-,0.02,Snow,Light Snow,170,2012-11-06 06:37:00
12:48 AM,33.8,30.2,87,29.74,2.5,South,11.5,-,0.03,Snow,Light Snow,170,2012-11-06 06:48:00
12:53 AM,33.1,30.9,92,29.78,4.0,South,11.5,-,0.03,Snow,Light Snow,170,2012-11-06 06:53:00
1:53 AM,33.1,32.0,96,29.77,2.5,South,10.4,-,0.01,,Overcast,190,2012-11-06 07:53:00
2:04 AM,33.8,32.0,93,29.72,3.0,South,8.1,-,N/A,,Overcast,190,2012-11-06 08:04:00
2:53 AM,33.1,32.0,96,29.74,3.0,SSW,10.4,-,0.00,,Overcast,210,2012-11-06 08:53:00
3:13 AM,33.8,32.0,93,29.69,4.0,WSW,9.2,-,N/A,,Overcast,240,2012-11-06 09:13:00
3:53 AM,33.1,32.0,96,29.73,2.5,SSW,8.1,-,N/A,,Overcast,210,2012-11-06 09:53:00
4:14 AM,33.8,33.8,100,29.68,4.0,WSW,12.7,-,N/A,,Overcast,250,2012-11-06 10:14:00
4:33 AM,35.6,33.8,93,29.68,6.0,NW,13.8,-,N/A,,Overcast,310,2012-11-06 10:33:00
4:43 AM,35.6,33.8,93,29.68,9.0,NW,9.2,-,N/A,,Overcast,310,2012-11-06 10:43:00
4:53 AM,35.1,33.1,92,29.73,9.0,WNW,8.1,-,N/A,,Overcast,300,2012-11-06 10:53:00
5:29 AM,35.6,33.8,93,29.69,10.0,WNW,13.8,-,N/A,,Overcast,300,2012-11-06 11:29:00
5:53 AM,35.1,32.0,89,29.75,10.0,WNW,16.1,-,N/A,,Overcast,300,2012-11-06 11:53:00
6:53 AM,35.1,33.1,92,29.75,10.0,WNW,11.5,-,N/A,,Overcast,290,2012-11-06 12:53:00
7:53 AM,35.1,33.1,92,29.77,10.0,West,12.7,-,0.00,,Overcast,280,2012-11-06 13:53:00
8:31 AM,35.6,33.8,93,29.72,10.0,West,11.5,-,N/A,,Overcast,280,2012-11-06 14:31:00
8:53 AM,36.0,33.1,89,29.77,10.0,West,15.0,-,N/A,,Overcast,280,2012-11-06 14:53:00
9:53 AM,36.0,34.0,93,29.78,5.0,WNW,11.5,-,0.00,,Overcast,290,2012-11-06 15:53:00
10:42 AM,37.4,33.8,87,29.74,7.0,WNW,16.1,-,0.00,,Overcast,300,2012-11-06 16:42:00
10:50 AM,37.4,33.8,87,29.74,6.0,WNW,17.3,-,0.00,,Overcast,300,2012-11-06 16:50:00
10:53 AM,37.0,34.0,89,29.79,4.0,WNW,18.4,-,0.00,Rain,Light Rain,300,2012-11-06 16:53:00
11:11 AM,37.4,33.8,87,29.75,6.0,NW,20.7,26.5,0.00,,Overcast,310,2012-11-06 17:11:00
11:18 AM,35.6,33.8,93,29.75,4.0,NW,16.1,25.3,0.01,Rain,Light Rain,310,2012-11-06 17:18:00
11:45 AM,35.6,33.8,93,29.75,6.0,NW,17.3,28.8,0.01,,Overcast,310,2012-11-06 17:45:00
11:53 AM,36.0,33.1,89,29.80,8.0,NW,16.1,28.8,0.01,,Overcast,320,2012-11-06 17:53:00
12:40 PM,35.6,33.8,93,29.76,10.0,NW,18.4,28.8,0.00,,Overcast,310,2012-11-06 18:40:00
12:53 PM,36.0,33.1,89,29.82,10.0,NW,16.1,24.2,0.00,,Overcast,310,2012-11-06 18:53:00
1:37 PM,35.6,33.8,93,29.78,9.0,NW,11.5,-,0.00,,Overcast,310,2012-11-06 19:37:00
1:53 PM,35.1,33.1,92,29.84,9.0,NW,10.4,19.6,0.00,,Overcast,320,2012-11-06 19:53:00
2:53 PM,36.0,33.1,89,29.85,10.0,NW,11.5,-,0.00,,Overcast,320,2012-11-06 20:53:00
3:40 PM,35.6,32.0,87,29.83,10.0,NW,17.3,25.3,N/A,,Overcast,320,2012-11-06 21:40:00
3:53 PM,36.0,32.0,86,29.88,10.0,NW,16.1,24.2,N/A,,Overcast,320,2012-11-06 21:53:00
4:39 PM,35.6,32.0,87,29.86,10.0,NNW,12.7,20.7,N/A,,Overcast,330,2012-11-06 22:39:00
4:53 PM,36.0,32.0,86,29.91,10.0,NNW,12.7,-,N/A,,Overcast,330,2012-11-06 22:53:00
5:53 PM,36.0,32.0,86,29.94,10.0,NNW,12.7,-,N/A,,Overcast,330,2012-11-06 23:53:00
6:53 PM,36.0,32.0,86,29.97,10.0,NNW,11.5,-,N/A,,Overcast,330,2012-11-07 00:53:00
7:53 PM,36.0,32.0,86,29.98,10.0,NNW,10.4,-,N/A,,Overcast,340,2012-11-07 01:53:00
8:53 PM,36.0,32.0,86,29.99,10.0,NNW,11.5,-,N/A,,Overcast,330,2012-11-07 02:53:00
9:53 PM,36.0,32.0,86,30.00,10.0,NNW,9.2,-,N/A,,Overcast,330,2012-11-07 03:53:00
10:53 PM,36.0,33.1,89,30.02,10.0,NW,10.4,-,N/A,,Overcast,320,2012-11-07 04:53:00
11:37 PM,35.6,33.8,93,29.98,10.0,NW,6.9,-,N/A,,Overcast,320,2012-11-07 05:37:00
11:53 PM,36.0,33.1,89,30.03,10.0,NW,4.6,-,N/A,,Overcast,320,2012-11-07 05:53:00